Location: Morrison Observatory
(41.7012°N, 86.2315°W)
Time: 08:06:34
(UTC-04:00)

Daily predictions for brighter satellites

Satellite Brightness Start Highest point End
(mag) Time Altitude Azimuth Time Altitude Azimuth Time Altitude Azimuth
Cosmos 1833 Rocket 3.4 20:22:46 10° N 20:27:52 34° ENE 20:32:58 10° ESE
Cosmos 1812 Rocket 3.8 20:25:33 10° S 20:29:58 79° W 20:34:22 10° N
ALOS 2.3 20:26:12 10° SSE 20:30:47 61° ENE 20:35:25 10° N
Abrixas 2.5 20:29:26 10° WNW 20:32:15 67° SSW 20:35:03 10° SE
RESURS DK-1 3.5 20:31:35 10° NW 20:35:35 47° WSW 20:39:33 10° S
Tiangong 1 3.6 20:34:28 10° WSW 20:36:06 14° SSW 20:37:42 10° S
Cosmos 2278 Rocket 2.4 20:32:28 10° SSW 20:38:08 80° WNW 20:43:51 10° NNE
ATLAS 5 CENTAUR R/B 2.4 20:36:23 10° S 20:40:33 33° ESE 20:45:01 10° NE
Cosmos 1125 Rocket 3.6 20:37:22 10° S 20:42:24 53° ESE 20:47:29 10° NNE
SeaSat 1 2.5 20:38:36 10° SE 20:43:28 66° ENE 20:48:23 10° NNW
Cosmos 1048 Rocket 4.2 20:39:54 10° N 20:44:53 49° ENE 20:49:50 10° SE
GPS 2-05 Rocket1 4.2 20:42:22 10° SW 20:45:23 26° S 20:48:14 11° ESE
Cosmos 1470 4.0 20:42:44 10° SE 20:45:50 22° E 20:48:56 10° NE
Cosmos 1766 Rocket 4.3 20:42:14 10° N 20:46:20 33° ENE 20:50:24 10° SE
Cosmos-2242 3.9 20:44:57 10° SSE 20:48:30 26° E 20:52:04 10° NNE
GP-B 3.9 20:48:13 10° SE 20:52:09 32° E 20:56:05 10° NNE
HJ-1C 3.5 20:51:08 10° S 20:54:32 80° WSW 20:57:58 10° NNW
Cosmos 2297 3.7 20:50:47 10° SSW 20:56:26 68° ESE 21:02:09 10° NNE
SJ-6B 3.7 20:53:51 10° S 20:57:28 49° W 21:01:08 10° NNW
BREEZE-M DEB (TANK) 3.0 20:54:55 10° SW 20:57:40 86° SSE 21:04:49 10° ENE
USA 186 2.1 20:58:06 20° E 20:58:44 23° ENE 21:00:34 10° NNE
H-2A R/B 2.7 20:55:37 10° SSE 20:59:30 79° ENE 21:03:28 10° N
Cosmos 1340 Rocket 3.8 20:56:18 10° NNE 20:59:47 28° ENE 21:02:27 14° SE
Resurs 01 Rocket 1.6 20:57:16 10° SSE 21:01:40 81° ENE 21:06:08 10° N
CZ-4B DEB 4.1 21:01:12 17° E 21:02:14 20° ENE 21:04:38 10° NNE
Timation 1 Rocket 4.5 21:01:37 10° SSW 21:07:38 82° WNW 21:13:42 10° NNE
Cosmos 2082 Rocket 2.2 21:02:35 10° NNW 21:08:19 78° ENE 21:13:57 10° SSE
ISS -3.9 21:07:06 10° SW 21:10:19 61° SE 21:12:45 16° ENE
Cosmos 1605 Rocket 4.3 21:04:42 10° SSW 21:10:58 73° W 21:17:21 10° N
Meteor 1-29 3.7 21:10:51 10° NE 21:13:58 30° E 21:16:41 12° SSE
Cosmos 2100 Rocket 4.1 21:08:51 10° SSE 21:14:57 53° E 21:21:07 10° NNE
Cosmos 1743 Rocket 4.3 21:13:26 10° N 21:17:29 34° ENE 21:19:40 22° SE
SAR-Lupe-4 3.5 21:16:30 14° SSE 21:19:24 61° ENE 21:22:58 10° N
CZ-3B DEB 3.9 21:12:41 10° WSW 21:22:22 42° NW 21:27:04 10° NE
SL-14 R/B 4.4 21:19:27 10° NNE 21:22:36 23° ENE 21:22:48 23° E
COSMOS 2487 2.8 21:19:48 10° NNW 21:23:22 68° WSW 21:26:45 11° S
YAOGAN 6 4.4 21:24:20 18° ENE 21:24:20 18° ENE 21:26:36 10° NNE
Cosmos 1271 Rocket 2.7 21:20:59 10° S 21:24:58 67° E 21:28:58 10° NNE
Cosmos 1758 4.3 21:22:27 10° SSW 21:26:19 50° W 21:30:14 10° N
Cosmos 2251 Rocket 4.2 21:21:30 10° N 21:26:25 36° ENE 21:28:42 25° ESE
H-2A R/B 4.5 21:22:59 10° SW 21:28:57 42° SSE 21:47:54 20° ESE
H-2A R/B 4.5 21:23:00 10° SW 21:28:57 42° SSE 21:48:00 20° ESE
H-2A R/B 4.5 21:22:59 10° SW 21:28:57 42° SSE 21:47:59 20° ESE
H-2A R/B 4.5 21:22:59 10° SW 21:28:57 42° SSE 21:48:01 20° ESE
H-2A R/B 4.5 21:23:00 10° SW 21:28:57 42° SSE 21:48:01 20° ESE
H-2A R/B 4.5 21:23:00 10° SW 21:28:57 42° SSE 21:47:57 20° ESE
H-2A R/B 4.5 21:22:59 10° SW 21:28:57 42° SSE 21:48:00 20° ESE
H-2A R/B 4.5 21:23:00 10° SW 21:28:57 42° SSE 21:48:02 20° ESE
H-2A R/B 4.5 21:22:59 10° SW 21:28:57 42° SSE 21:47:58 20° ESE
H-2A R/B 4.5 21:23:00 10° SW 21:28:57 42° SSE 21:47:59 20° ESE
H-2A R/B 4.5 21:22:59 10° SW 21:28:58 42° SSE 21:47:57 20° ESE
H-2A R/B 4.5 21:23:00 10° SW 21:28:58 42° SSE 21:47:58 20° ESE
H-2A R/B 4.5 21:23:00 10° SW 21:28:58 42° SSE 21:47:56 20° ESE
H-2A R/B 4.5 21:23:00 10° SW 21:28:58 42° SSE 21:47:59 20° ESE
H-2A R/B 4.5 21:22:59 10° SW 21:28:58 42° SSE 21:48:00 20° ESE
Cosmos 1269 Rocket 4.4 21:23:46 10° NNW 21:29:01 67° WSW 21:34:14 10° S
Cosmos 1328 4.5 21:26:16 10° NNE 21:29:52 32° ENE 21:30:24 31° E
Cosmos 372 Rocket 4.1 21:25:21 10° SSW 21:30:27 76° WNW 21:35:38 10° NNE
Cosmos 1674 2.8 21:28:30 10° NNW 21:32:17 75° W 21:36:05 10° S
Cosmos 1953 3.5 21:28:45 10° SSW 21:32:40 46° W 21:36:36 10° N
Cosmos 158 Rocket 4.2 21:28:34 10° NNW 21:33:43 73° WSW 21:38:57 10° S
Lacrosse 5 3.9 21:31:20 10° W 21:35:35 26° NNW 21:39:50 10° NNE
USA 215 3.7 21:30:16 10° ENE 21:36:15 38° SE 21:42:14 10° SSW
Cosmos 1408 Rocket 3.9 21:32:49 10° NNW 21:37:16 69° W 21:41:42 10° S
SAR-Lupe-1 4.0 21:36:02 23° SSE 21:38:08 89° WSW 21:41:45 10° NNW
Cosmos 1802 Rocket 3.9 21:32:40 10° S 21:38:42 64° E 21:44:48 10° NNE
Cosmos 2151 3.8 21:38:21 10° NNE 21:42:00 31° ENE 21:42:00 31° ENE
SPOT 5 4.4 21:42:55 23° ENE 21:43:17 23° ENE 21:47:21 10° NNE
Helios 1B rocket 2.4 21:39:47 10° NNE 21:43:56 84° WNW 21:48:02 10° SSW
Cosmos 1939 Rocket 3.0 21:42:57 40° SE 21:44:11 58° ENE 21:48:17 10° N
TIMED 4.4 21:44:47 10° SSW 21:49:08 78° ESE 21:53:31 10° NNE
SJ-11-01 4.2 21:48:15 30° SSE 21:50:34 76° ENE 21:55:18 10° N
Cosmos 1842 Rocket 3.5 21:50:28 34° SSE 21:52:12 61° E 21:56:33 10° NNE
Lacrosse 5 rocket 1.2 21:49:38 10° NW 21:53:32 68° SW 21:54:09 55° S
Cosmos 2061 Rocket 4.0 21:49:36 10° S 21:56:00 87° W 22:02:29 10° N
Cosmos 1626 4.5 21:54:11 10° NNE 21:54:52 13° NNE 21:54:52 13° NNE
Cosmos 494 Rocket 3.9 21:52:31 10° NNW 21:57:38 68° ENE 21:59:02 46° SE
Cosmos 2369 Rocket 3.6 22:01:46 21° NE 22:01:46 21° NE 22:03:52 10° NE
Cosmos 1459 Rocket 4.1 21:54:27 10° SSW 22:00:42 74° W 22:06:53 10° N
Helios 1A 4.2 22:02:56 14° SSW 22:06:12 39° W 22:10:10 10° NNW
Gblst 52 Del rocket 4.2 22:00:42 10° SW 22:06:33 58° SE 22:07:37 49° E
Cosmos 1184 Rocket 3.3 22:05:24 10° NNW 22:08:25 59° WNW 22:08:25 59° WNW
Cosmos 2173 Rocket 4.3 22:02:54 10° SSW 22:09:01 65° W 22:15:17 10° N
USA 267 4.4 22:06:11 21° ENE 22:09:20 32° NNE 22:14:59 10° NW
Cosmos 2233 Rocket 4.5 22:10:12 38° ENE 22:10:12 38° ENE 22:15:23 10° NNE
Envisat 3.3 22:08:43 25° S 22:11:40 64° W 22:16:43 10° NNW
Cosmos 1833 Rocket 4.1 22:06:43 10° NW 22:11:45 35° WSW 22:16:33 11° SSW
Cosmos 1864 Rocket 4.4 22:11:34 29° S 22:14:59 71° E 22:21:16 10° NNE
NOAA 11 4.3 22:19:29 53° ENE 22:19:35 53° ENE 22:24:55 10° N
ERS-1 Rocket 2.8 22:23:15 71° SSE 22:23:50 90° S 22:28:54 10° NNW
ATLAS 5 CENTAUR R/B 3.5 22:20:50 10° WSW 22:25:10 34° NW 22:29:53 10° NNE
H-2A R/B 3.4 22:31:00 28° NE 22:31:00 28° NE 22:34:18 10° N
Cosmos 1356 Rocket 4.1 22:26:34 10° NNW 22:30:27 50° W 22:30:27 50° W
CZ-3 Stage 3 3.8 22:12:35 10° W 22:35:52 41° SSW 22:37:49 36° S
Cosmos 2221 4.3 22:45:55 24° N 22:45:55 24° N 22:47:44 10° N
ISS -0.9 22:44:16 10° WNW 22:45:26 17° WNW 22:45:26 17° WNW
MetOp-A 4.2 22:49:15 76° NW 22:49:15 76° NW 22:54:17 10° NNW
Cosmos 1725 Rocket 4.3 22:47:24 26° SSW 22:50:55 61° W 22:57:04 10° N
ARGOS 3.5 22:55:16 59° N 22:55:16 59° N 22:59:35 10° NNW
MOS 1-B Rocket 4.4 23:01:31 71° E 23:01:46 72° ENE 23:08:39 10° N
BREEZE-M DEB (TANK) 4.5 23:12:46 10° W 23:17:55 73° N 23:41:23 10° E
USA 215 3.5 23:13:01 10° NE 23:19:28 65° NW 23:25:54 10° WSW
Lacrosse 5 4.4 23:17:29 10° NW 23:20:10 14° N 23:22:01 12° NNE
SPOT 5 4.1 23:22:09 43° WNW 23:22:09 43° WNW 23:26:09 10° NNW
Terra 4.0 23:31:05 20° N 23:31:05 20° N 23:32:32 10° N
CZ-3B DEB 4.4 23:32:27 10° NW 23:34:52 13° NNW 23:35:01 13° NNW
Cosmos 2369 Rocket 3.6 23:43:23 34° NW 23:43:23 34° NW 23:47:57 10° N
USA 267 3.9 23:53:31 52° NW 23:53:31 52° NW 23:58:18 10° NW
